{"data":{"norad_id":62655,"epoch":"2026-05-24T23:18:22.371264Z","epoch_age_seconds":77524,"freshness":"FRESH","line1":"1 62655U 25009AY  26144.97109226  .00024220  00000+0  60573-3 0  9996","line2":"2 62655  97.4033 231.0981 0001137  65.4472 294.6892 15.40114437 75626","mean_motion":15.40114437,"eccentricity":0.0001137,"inclination_deg":97.4033,"raan_deg":231.0981,"arg_perigee_deg":65.4472,"mean_anomaly_deg":294.6892,"bstar":0.00060573,"rev_number":7562,"period_min":93.499545579547,"perigee_km":444.99538856255,"apogee_km":446.54714530245,"semimajor_km":6823.9082669325,"source":"CELESTRAK","updated_at":"2026-05-25T13:38:03.160177Z"}}